Meath Environmental Platform

Observations

Time Sensor AQI SAQ Temp °C Hum % Pres Pa CO μg/m³ H₂S μg/m³ NO μg/m³ NO₂ μg/m³ O₃ μg/m³ SO₂ μg/m³ CO₂e PPM VOC PPM PM1 μg/m³ PM2.5 μg/m³ PM4 μg/m³ PM10 μg/m³ TPS µm
Tuesday 11 August 2026
11:22 Trim Patrick St 1 32.9 31 69,383 0 0 0.55 8.03 73.58 14.27 2 7.62 8.38
11:21 Trim Market St 1 38.2 22 66,798 0 0 0.01 14.26 99.68 0.95 1.43 4.19 4.61
11:21 Trim Patrick St 1 32.8 33 69,373 0 0 0.55 6.72 61.61 13.66 2.86 8.28 9.11
11:20 Trim Market St 1 38.1 22 66,807 0 0 0.03 13.84 89.16 0.04 0.71 3.64 4
11:20 Trim Patrick St 1 32.6 32 69,385 0 0 0.59 8.98 76.72 15.09 2.86 8.38 9.21
11:19 Trim Market St 1 38 23 66,817 0 0 0.04 14.25 61.88 0.43 0.71 4.18 4.6
11:19 Trim Patrick St 1 32.5 29 69,377 0 0 0.62 5.23 61.39 14.99 2.86 9.33 10.27
11:18 Trim Market St 1 37.9 23 66,806 0 0 0.03 12.11 90.77 0.82 0.71 3.61 3.97
11:18 Trim Patrick St 1 32.4 32 69,363 0 0 0.61 7.17 76.21 15.2 3.71 9.19 10.1
11:17 Trim Market St 1 37.9 23 66,762 0 0 0.11 14.07 88.82 0.35 0 3.05 3.35
11:17 Trim Patrick St 1 32.3 31 69,347 0 0 0.62 11.41 83.07 14.89 2 8.41 9.25
11:16 Trim Market St 1 37.8 23 66,764 0 0 0.12 12.04 92.45 0.74 0.71 4.16 4.57
11:16 Trim Patrick St 1 32.2 30 69,328 0 0 0.63 11.24 91.15 14.28 2.86 9.26 10.19
11:15 Trim Market St 1 37.7 23 66,766 0 0 0.18 11.84 77.81 0.45 0 3.6 3.96
11:15 Trim Patrick St 1 32.1 32 69,334 0 0 0.61 3.1 52.77 13.13 2 8.34 9.18
11:14 Trim Patrick St 1 32 30 69,336 0 0 0.65 11.61 45.01 12.89 2 8.47 9.31
11:13 Trim Market St 1 37.6 24 66,770 0 0 0.17 13.74 83.94 0.76 0 3.55 3.91
11:13 Trim Patrick St 1 32 31 69,339 0 0 0.65 4.9 73 13.39 2 7.62 8.39
11:12 Trim Patrick St 1 31.9 32 69,320 0 0 0.67 7 65.68 13.61 2.86 8.34 9.17
11:11 Trim Market St 1 37.6 24 66,788 0 0 0.16 10.3 86.96 1.51 0.71 3.55 3.9